AL-FARABI 2 (43805 NORAD) Tracking and Keplerian Element Data

This shows tracking and keplerian element data for the satellite.

Feedback or suggestion? Click here.




ElementValue
Catalog43805
NameAL-FARABI 2
Epoch Orbit38697
Epoch Day354.18555055
Epoch Year2025
RAAN61.6478
Inclination97.4297
Eccentricity0.0004611
Argument of Perigee143.5018
Mean Anonmoly216.6549
Mean Motion15.5087289
Decay Rate0.0004472
L11 43805U 18099AZ 25354.18555055 .00044720 00000+0 77192-3 0 9995
L22 43805 97.4297 61.6478 0004611 143.5018 216.6549 15.50872890386977



Live tracking and technical data element details for AL-FARABI 2 (NORAD 43805). AL-FARABI 2 can be tracked NOW for your location showing map with azimuth and elevation plus other details from your city location.







IsCatalogInMostPopularTable: catalog: 43805, numindb: 336
Update: records affected: 1



GetName: 43805 AL-FARABI 2

Hit Count: updated at: Thu, 21 May 2026 11:08:48 GMT